Weather History for Groton, CT

Change the Weather History Date:

Friday, June 2, 2006

  Actual Average Record
Temperature  
Mean Temperature 66 °F -  
Max Temperature 70 °F 70 °F 84 °F (1961)
Min Temperature 61 °F 52 °F 42 °F (1971)
Growing Degree Days 16 (Base 50)    
Moisture  
Dew Point 63 °F    
Average Humidity 93    
Maximum Humidity 100    
Minimum Humidity 83    
Precipitation  
Precipitation 0.08 in - - ()
Sea Level Pressure  
Sea Level Pressure 29.86 in    
Wind  
Wind Speed 4 mph (SSE)    
Max Wind Speed 10 mph    
Max Gust Speed -    
Visibility 3 miles    
Events Rain    
Averages and records for this station are not official NWS values.
T = Trace of Precipitation, MM = Missing Value Source: NWS Daily Summary

Daily Weather History Graph

Daily Weather History Graph

Search for Another Location

Airport:

Trip Planner

Search our weather history database for the weather conditions in past years. The results will help you decide how hot, cold, wet, or windy it might be!

Date:

Astronomy

Jun. 02, 2006 Rise Set
Actual Time 5:16 AM EDT 8:15 PM EDT
Civil Twilight 4:43 AM EDT 8:49 PM EDT
Nautical Twilight 4:01 AM EDT 9:31 PM EDT
Astronomical Twilight 3:12 AM EDT 10:20 PM EDT
Moon 11:13 AM EDT (6/2) 12:51 AM EDT (6/2)
Length of Visible Light 16h 05m
Length of Day
14h 58m
Waxing Crescent, 38% of the Moon is Illuminated
Jun 2
Waxing Crescent
Jun 3
First Quarter
Jun 11
Full
Jun 18
Last Quarter
Jun 25
New

Hourly Weather History & Observations

Time (EDT) Temp. Dew Point Humidity Pressure Visibility Wind Dir Wind Speed Gust Speed Precip Events Conditions
12:56 AM 62.1 °F 61.0 °F 96% 29.91 in 6.0 mi SW 6.9 mph - 0.02 in Rain Light Rain
1:56 AM 64.0 °F 63.0 °F 96% 29.89 in 6.0 mi Calm Calm - 0.00 in   Partly Cloudy
2:56 AM 62.1 °F 60.1 °F 93% 29.88 in 5.0 mi Calm Calm - 0.00 in   Partly Cloudy
3:46 AM 62.6 °F 60.8 °F 94% 29.88 in 4.0 mi Calm Calm - N/A   Mostly Cloudy
3:56 AM 61.0 °F 60.1 °F 97% 29.88 in 4.0 mi SSW 3.5 mph - N/A   Mostly Cloudy
4:13 AM 62.6 °F 60.8 °F 94% 29.88 in 4.0 mi Calm Calm - N/A   Mostly Cloudy
4:56 AM 63.0 °F 62.1 °F 97% 29.86 in 5.0 mi Calm Calm - N/A   Mostly Cloudy
5:21 AM 62.6 °F 60.8 °F 94% 29.86 in 4.0 mi ESE 5.8 mph - N/A   Overcast
5:45 AM 62.6 °F 60.8 °F 94% 29.87 in 2.5 mi Calm Calm - N/A   Overcast
5:56 AM 62.1 °F 61.0 °F 96% 29.88 in 2.5 mi Calm Calm - N/A   Overcast
6:10 AM 62.6 °F 60.8 °F 94% 29.87 in 3.0 mi Calm Calm - N/A   Overcast
6:41 AM 62.6 °F 62.6 °F 100% 29.88 in 4.0 mi Calm Calm - N/A   Overcast
6:56 AM 63.0 °F 62.1 °F 97% 29.88 in 2.0 mi Calm Calm - N/A   Overcast
7:03 AM 62.6 °F 62.6 °F 100% 29.88 in 2.0 mi Calm Calm - N/A   Overcast
8:03 AM 64.4 °F 62.6 °F 94% 29.89 in 2.0 mi Calm Calm - N/A   Overcast
8:56 AM 68.0 °F 64.9 °F 90% 29.88 in 2.0 mi Calm Calm - N/A   Overcast
9:03 AM 69.8 °F 66.2 °F 88% 29.88 in 6.0 mi Calm Calm - N/A   Overcast
9:56 AM 69.1 °F 64.9 °F 87% 29.87 in 5.0 mi SSW 5.8 mph - N/A   Scattered Clouds
10:03 AM 69.8 °F 66.2 °F 88% 29.87 in 3.0 mi SW 5.8 mph - N/A   Mostly Cloudy
10:56 AM 69.1 °F 64.9 °F 87% 29.87 in 3.0 mi Variable 4.6 mph - N/A   Mostly Cloudy
10:59 AM 69.8 °F 64.4 °F 83% 29.87 in 2.5 mi WSW 5.8 mph - N/A   Overcast
11:24 AM 66.2 °F 64.4 °F 94% 29.87 in 2.5 mi South 5.8 mph - N/A   Overcast
11:56 AM 70.0 °F 66.0 °F 87% 29.87 in 2.5 mi West 3.5 mph - N/A   Overcast
12:56 PM 66.2 °F 64.4 °F 94% 29.87 in 2.5 mi SSW 8.1 mph - N/A   Mostly Cloudy
1:56 PM 68.0 °F 64.9 °F 90% 29.86 in 2.0 mi South 8.1 mph - N/A   Mostly Cloudy
2:03 PM 69.8 °F 66.2 °F 88% 29.85 in 2.0 mi SSW 6.9 mph - N/A   Mostly Cloudy
2:45 PM 68.0 °F 64.4 °F 88% 29.85 in 2.0 mi South 8.1 mph - N/A   Mostly Cloudy
2:56 PM 66.9 °F 63.0 °F 87% 29.84 in 2.0 mi South 9.2 mph - N/A   Mostly Cloudy
3:56 PM 66.9 °F 62.1 °F 84% 29.83 in 3.0 mi South 6.9 mph - N/A   Mostly Cloudy
4:56 PM 64.9 °F 63.0 °F 93% 29.83 in 3.0 mi South 5.8 mph - 0.00 in Rain Light Rain
5:56 PM 64.9 °F 63.0 °F 93% 29.84 in 2.0 mi SSE 3.5 mph - 0.01 in Rain Light Rain
5:59 PM 64.4 °F 62.6 °F 94% 29.84 in 1.0 mi SE 4.6 mph - 0.00 in Rain Light Rain
6:56 PM 64.9 °F 64.0 °F 97% 29.84 in 1.0 mi East 5.8 mph - 0.00 in Rain Light Rain
7:56 PM 63.0 °F 63.0 °F 100% 29.84 in 1.0 mi ESE 10.4 mph - 0.04 in   Overcast
8:09 PM 62.6 °F 62.6 °F 100% 29.84 in 2.0 mi ESE 9.2 mph - N/A   Overcast
8:16 PM 62.6 °F 62.6 °F 100% 29.84 in 1.0 mi East 6.9 mph - N/A   Overcast
8:40 PM 64.4 °F 62.6 °F 94% 29.85 in 1.0 mi East 5.8 mph - N/A   Overcast
8:47 PM 64.4 °F 62.6 °F 94% 29.84 in 1.0 mi East 5.8 mph - N/A   Overcast
8:56 PM 64.0 °F 63.0 °F 96% 29.85 in 1.0 mi ENE 9.2 mph - 0.00 in Rain Light Rain
9:03 PM 64.4 °F 62.6 °F 94% 29.85 in 2.0 mi NE 10.4 mph - 0.00 in Rain Light Rain
9:56 PM 63.0 °F 61.0 °F 93% 29.86 in 8.0 mi NE 8.1 mph - 0.00 in   Overcast
10:56 PM 62.1 °F 60.1 °F 93% 29.84 in 10.0 mi NE 9.2 mph - 0.00 in Rain Light Rain
11:56 PM 61.0 °F 59.0 °F 93% 29.82 in 10.0 mi NE 8.1 mph - 0.01 in Rain Light Rain